Lake Clear, NY

8:03 AM EDT on August 26, 2016 (GMT -0400)
Adirondack Regional

Weather History for KSLK - September, 2012

Change the Weather History Date:

Monday, September 10, 2012

  Actual Average Record
Temperature  
Mean Temperature 44 °F 56 °F  
Max Temperature 53 °F 69 °F 87 °F (1959)
Min Temperature 34 °F 43 °F 27 °F (1956)
Degree Days  
Heating Degree Days 21 9  
Month to date heating degree days 54 80  
Since 1 July heating degree days 233 320  
Cooling Degree Days 0 0  
Month to date cooling degree days 4 7  
Year to date cooling degree days 155 114  
Moisture  
Dew Point 42 °F    
Average Humidity 82    
Maximum Humidity 100    
Minimum Humidity 63    
Precipitation  
Precipitation 0.00 in 0.12 in 1.13 in (1981)
Month to date precipitation 3.62 1.13  
Year to date precipitation 23.83 25.67  
Sea Level Pressure  
Sea Level Pressure 30.04 in    
Wind  
Wind Speed 3 mph (NW)    
Max Wind Speed 8 mph    
Max Gust Speed -    
Visibility 10 miles    
Events      
T = Trace of Precipitation, MM = Missing Value Source: NWS Daily Summary

Daily Weather History Graph

Daily Weather History Graph

Search for Another Location

Airport or City:

Trip Planner

Search our weather history database for the weather conditions in past years. The results will help you decide how hot, cold, wet, or windy it might be!

Date:

Astronomy

Sep. 10, 2012 Rise Set
Actual Time 6:30 AM EDT 7:15 PM EDT
Civil Twilight 6:01 AM EDT 7:45 PM EDT
Nautical Twilight 5:26 AM EDT 8:19 PM EDT
Astronomical Twilight 4:49 AM EDT 8:56 PM EDT
Moon 12:39 AM EDT (9/10) 3:52 PM EDT (9/10)
Length of Visible Light 13h 44m
Length of Day
12h 45m
Waning Crescent, 30% of the Moon is Illuminated
Sep 10
Waning Crescent
Sep 15
New
Sep 22
First Quarter
Sep 29
Full
Oct 8
Last Quarter

Hourly Weather History & Observations

Time (EDT) Temp. Dew Point Humidity Pressure Visibility Wind Dir Wind Speed Gust Speed Precip Events Conditions
12:51 AM 42.1 °F 41.0 °F 96% 29.96 in 10.0 mi Calm Calm - N/A   Partly Cloudy
1:51 AM 44.1 °F 42.1 °F 93% 29.96 in 10.0 mi Calm Calm - N/A   Overcast
2:51 AM 44.1 °F 43.0 °F 96% 29.96 in 10.0 mi Calm Calm - N/A   Overcast
3:10 AM 44.6 °F 44.6 °F 100% 29.95 in 10.0 mi Calm Calm - N/A   Overcast
3:51 AM 48.9 °F 46.0 °F 90% 29.95 in 10.0 mi Calm Calm - N/A   Overcast
4:31 AM 48.2 °F 46.4 °F 93% 29.95 in 10.0 mi Calm Calm - N/A   Overcast
4:40 AM 48.2 °F 46.4 °F 93% 29.96 in 10.0 mi Calm Calm - N/A   Overcast
4:51 AM 48.9 °F 46.0 °F 90% 29.96 in 10.0 mi Calm Calm - N/A   Overcast
5:26 AM 48.2 °F 46.4 °F 93% 29.96 in 9.0 mi Variable 3.5 mph - N/A   Overcast
5:51 AM 48.9 °F 46.0 °F 90% 29.97 in 10.0 mi Calm Calm - N/A   Overcast
6:51 AM 48.0 °F 44.1 °F 86% 30.01 in 10.0 mi Variable 3.5 mph - N/A   Mostly Cloudy
7:33 AM 48.2 °F 42.8 °F 82% 30.02 in 10.0 mi Variable 4.6 mph - N/A   Partly Cloudy
7:49 AM 48.2 °F 42.8 °F 82% 30.02 in 10.0 mi NNW 4.6 mph - N/A   Mostly Cloudy
7:51 AM 48.0 °F 42.1 °F 80% 30.04 in 10.0 mi Variable 3.5 mph - N/A   Mostly Cloudy
8:41 AM 50.0 °F 42.8 °F 76% 30.03 in 10.0 mi Variable 6.9 mph - N/A   Scattered Clouds
8:51 AM 51.1 °F 42.1 °F 71% 30.05 in 10.0 mi Variable 6.9 mph - N/A   Scattered Clouds
9:09 AM 51.8 °F 41.0 °F 67% 30.04 in 10.0 mi Variable 4.6 mph - N/A   Mostly Cloudy
9:51 AM 50.0 °F 41.0 °F 71% 30.07 in 10.0 mi Variable 3.5 mph - N/A   Mostly Cloudy
10:51 AM 52.0 °F 41.0 °F 66% 30.07 in 10.0 mi Variable 5.8 mph - N/A   Overcast
11:15 AM 51.8 °F 41.0 °F 67% 30.05 in 10.0 mi NW 3.5 mph - N/A   Overcast
11:28 AM 51.8 °F 39.2 °F 62% 30.06 in 10.0 mi Variable 5.8 mph - N/A   Overcast
11:51 AM 51.8 °F 39.2 °F 62% 30.06 in 10.0 mi Variable 4.6 mph - N/A   Overcast
12:51 PM 52.0 °F 39.0 °F 61% 30.09 in 10.0 mi Variable 5.8 mph - N/A   Overcast
1:51 PM 52.0 °F 39.0 °F 61% 30.09 in 10.0 mi Variable 6.9 mph - N/A   Overcast
2:51 PM 52.0 °F 39.9 °F 63% 30.09 in 10.0 mi Variable 4.6 mph - N/A   Overcast
3:51 PM 52.0 °F 39.9 °F 63% 30.09 in 10.0 mi NW 8.1 mph - N/A   Overcast
4:51 PM 52.0 °F 41.0 °F 66% 30.09 in 10.0 mi Variable 5.8 mph - N/A   Overcast
5:51 PM 52.0 °F 41.0 °F 66% 30.10 in 10.0 mi West 3.5 mph - N/A   Overcast
6:51 PM 51.1 °F 42.1 °F 71% 30.11 in 10.0 mi Variable 3.5 mph - N/A   Overcast
7:51 PM 50.0 °F 42.1 °F 74% 30.12 in 10.0 mi Calm Calm - N/A   Overcast
8:51 PM 48.0 °F 42.1 °F 80% 30.13 in 10.0 mi Calm Calm - N/A   Mostly Cloudy
9:51 PM 45.0 °F 43.0 °F 93% 30.15 in 10.0 mi Calm Calm - N/A   Mostly Cloudy
10:51 PM 41.0 °F 39.0 °F 93% 30.16 in 10.0 mi Calm Calm - N/A   Clear
11:51 PM 36.0 °F 35.1 °F 97% 30.17 in 10.0 mi Calm Calm - N/A   Clear